Regional Weather Roundup
Issued by NWS

Home | Current Version | Previous Version | Text Only | Print | Product List | Glossary Off
Versions: 1 2 3 4 5 6 7 8 9 10 11 12 13 14 15 16 17 18 19 20 21 22 23 24 25 26 27 28 29 30 31 32 33 34 35 36 37 38 39 40 41 42 43 44 45 46 47 48 49

000
ASUS45 KSLC 271210
RWRUT

UTAH REGIONAL WEATHER ROUNDUP
NATIONAL WEATHER SERVICE SALT LAKE CITY UT
500 AM MST FRI FEB 27 2015

UTZ001>011-023>025-271300-

NORTHERN UTAH

CITY           SKY/WX    TMP DP  RH WIND       PRES   REMARKS
BRIGHAM CITY   CLOUDY    29  24  84 CALM      29.84F
HILL AFB       CLOUDY    29  21  70 E10       29.82F WCI  20
LOGAN          CLOUDY    25  21  85 E3        29.83F
OGDEN          CLOUDY    30  22  72 SE6       29.83F WCI  24
PROVO AIRPORT  CLOUDY    28  25  86 SE6       29.86S WCI  22
SALT LAKE CITY CLOUDY    31  25  78 S8        29.84F WCI  23
VERNAL         MOCLDY    23  10  57 NE8       29.87S WCI  14
WENDOVER       CLOUDY    36  25  64 CALM      29.83F
HEBER CITY     CLOUDY    23  18  80 E3        29.83S
WEST JORDAN    CLOUDY    27  25  93 CALM      29.85S

$$

UTZ012>022-026-027-271300-

SOUTHERN/CENTRAL UTAH

CITY           SKY/WX    TMP DP  RH WIND       PRES   REMARKS
BLANDING       CLOUDY    26  26 100 CALM      29.90S
BRYCE CANYON   PTCLDY    10   7  87 W3        29.82F
CEDAR CITY     MOCLDY    24  21  88 NE3       29.82F
DELTA          CLOUDY    28  24  84 S3        29.84F
HANKSVILLE     CLEAR     23  21  93 CALM      29.86S
MILFORD        PTCLDY    23  19  85 CALM      29.84F
MOAB/CYNLANDS  CLOUDY    33  32  96 CALM      29.81S
PRICE          CLEAR     20  13  74 NE5       29.79F WCI  13
ST GEORGE      MOSUNNY   43  28  56 E3        29.83F
KANAB            N/A     34  23  64 N8        29.86F WCI  27

$$

REGIONAL REPORTS     COLORADO/ARIZONA

CITY           SKY/WX    TMP DP  RH WIND       PRES   REMARKS
CRAIG, CO      MOCLDY     9   4  80 CALM      29.87S
GRAND JUNCTION CLOUDY    30  29  96 E5        29.82R WCI  25
RIFLE          CLOUDY    26  18  71 NW3       29.81S
MONTROSE       PTCLDY    21  17  84 S9        29.82F WCI  11
CORTEZ         CLOUDY    27  26  96 CALM      29.84F
PAGE, AZ       CLOUDY    40  32  73 N3        29.82F
GRAND CANYON   MOCLDY    23  20  88 CALM      29.81F
KINGMAN        MOCLDY    37  26  64 S3        29.77S
FLAGSTAFF      MOCLDY    22  16  78 CALM      29.82F

$$

REGIONAL REPORTS    NEVADA/IDAHO/WYOMING

CITY           SKY/WX    TMP DP  RH WIND       PRES   REMARKS
LAS VEGAS, NV  PTCLDY    50  24  36 S8        29.75S
ELY            CLOUDY    18  13  80 SE3       29.84S
ELKO           CLOUDY    27  24  89 NE5       29.81F WCI  22
POCATELLO, ID  CLOUDY    29  28  96 N3        29.82F
BURLEY         CLOUDY    33  30  88 W5        29.79F WCI  29
EVANSTON, WY   CLOUDY    13  10  88 E9        29.81F WCI   1
ROCK SPRINGS   CLOUDY     3  -1  83 SE5       29.86F WCI  -6

$$



USA.gov is the U.S. government's official web portal to all federal, state and local government web resources and services.